Location: Northern Prairie Star Party
(53.2167°N, 112.5333°W)
Time: 00:52:15
(UTC-07:00)

Amateur Radio Satellites - All Passes

Search period start: 08 December 2016 00:22
Search period end: 09 December 2016 00:22
Location: Northern Prairie Star Party, 53.2167°N, 112.5333°W

Satellite Date Start Highest point End Downlink Frequencies (MHz)
Time Altitude Azimuth
AISAT 08 Dec 00:23:43 00:27:38 30° 265° (W) 00:31:36 437.250
50 SAT 08 Dec 00:24:57 00:27:58 27° 264° (W) 00:31:02 437.505
ESTCUBE 1 08 Dec 00:27:49 00:30:31 16° 273° (W) 00:33:15 437.505/2401.250
POPSAT HIP 1 08 Dec 00:31:59 00:36:17 87° 108° (ESE) 00:40:31 437.405
Oscar 19 08 Dec 00:39:27 00:42:18 15° 85° (E) 00:45:08 437.125/150
O/OREOS (USA 219) 08 Dec 00:41:40 00:46:03 48° 53° (NE) 00:50:22 437.305
CUBEBUG 1 08 Dec 00:45:50 00:48:30 16° 272° (W) 00:51:12 437.445
ITUPSAT 1 08 Dec 00:46:39 00:50:22 23° 57° (ENE) 00:54:05 437.325
Gurwin Techsat 1B 08 Dec 00:53:53 00:54:54 10° 81° (E) 00:55:55 435.225
TISAT 1 08 Dec 00:55:37 00:59:53 85° 70° (ENE) 01:04:10 437.305
GONETS M04 08 Dec 00:56:08 01:04:43 68° 94° (E) 01:13:21
BUGSAT 1 08 Dec 00:58:59 01:03:10 62° 101° (E) 01:07:17 437.445
Cosmos 2499 08 Dec 01:00:16 01:08:58 78° 97° (E) 01:17:53 435.465 / 435.565
JAS-2 08 Dec 01:00:36 01:05:37 50° 294° (WNW) 01:10:44 435.910
SO-50 08 Dec 01:01:57 01:05:29 21° 7° (N) 01:08:57 436.795
VELOX 1 08 Dec 01:02:07 01:04:49 16° 272° (W) 01:07:31 145.980
DX 1 08 Dec 01:07:20 01:10:43 22° 268° (W) 01:14:08 434.975-435.025
MOZHAYETS 4 08 Dec 01:07:41 01:08:57 11° 49° (NE) 01:10:12
UKube-1 08 Dec 01:09:54 01:13:30 25° 266° (W) 01:17:07 .
SPROUT 08 Dec 01:19:31 01:22:03 15° 273° (W) 01:24:34 437.525
NANOSAT C BR1 08 Dec 01:25:27 01:29:17 33° 296° (WNW) 01:33:05 145.865
QB50P2 08 Dec 01:33:39 01:37:12 26° 298° (WNW) 01:40:45 145.880/145.840
POLYITAN 1 08 Dec 01:34:05 01:37:41 27° 298° (WNW) 01:41:16 437.675
AUBIESAT-1 08 Dec 01:35:20 01:39:37 72° 66° (ENE) 01:44:12 437.475
AO-85 08 Dec 01:41:29 01:45:26 26° 119° (ESE) 01:49:09 145.980
QB50P1 08 Dec 01:46:37 01:49:55 22° 301° (WNW) 01:53:12 145.935-145.965
DUCHIFAT 1 08 Dec 01:46:49 01:50:15 24° 299° (WNW) 01:53:39 145.980
M-CUBED/EXP-1 PRIME 08 Dec 01:49:30 01:53:47 75° 250° (WSW) 01:58:24 437.505
SWISSCUBE 08 Dec 01:50:02 01:54:48 75° 71° (ENE) 01:59:35 437.505
BEESAT 08 Dec 01:53:50 01:58:36 74° 72° (ENE) 02:03:23 436.000
POPSAT HIP 1 08 Dec 02:08:56 02:11:29 16° 305° (NW) 02:14:02 437.405
Oscar 19 08 Dec 02:17:15 02:22:29 80° 106° (ESE) 02:27:42 437.125/150
O/OREOS (USA 219) 08 Dec 02:21:26 02:25:15 28° 254° (WSW) 02:29:02 437.305
ITUPSAT 1 08 Dec 02:23:03 02:27:49 67° 257° (WSW) 02:32:36 437.325
YUBILEINY 08 Dec 02:29:50 02:30:35 10° 23° (NNE) 02:31:20 435.215
Gurwin Techsat 1B 08 Dec 02:30:44 02:36:01 59° 101° (ESE) 02:41:16 435.225
TISAT 1 08 Dec 02:33:57 02:36:07 14° 273° (W) 02:38:19 437.305
BUGSAT 1 08 Dec 02:35:04 02:38:11 20° 302° (WNW) 02:41:15 437.445
MOZHAYETS 4 08 Dec 02:40:42 02:45:11 54° 69° (ENE) 02:49:39
SO-50 08 Dec 02:42:47 02:47:07 38° 31° (NNE) 02:51:20 436.795
JAS-2 08 Dec 02:48:01 02:49:37 11° 316° (NW) 02:51:14 435.910
ITAMSAT 1 08 Dec 02:50:50 02:55:05 25° 92° (E) 02:59:18 435.822/435.867
CUBESAT XI-V 08 Dec 02:51:20 02:54:11 16° 54° (NE) 02:57:03 437.345
GONETS M04 08 Dec 02:54:18 03:02:14 38° 299° (WNW) 03:10:13
KKS-1 08 Dec 02:55:10 02:59:18 38° 65° (ENE) 03:03:29 437.445
Cosmos 2499 08 Dec 02:55:11 03:03:02 35° 301° (WNW) 03:11:01 435.465 / 435.565
STARS 08 Dec 02:55:49 02:59:15 22° 58° (ENE) 03:02:42 437.465
AUBIESAT-1 08 Dec 03:11:31 03:14:33 18° 266° (W) 03:17:42 437.475
AO-85 08 Dec 03:20:53 03:25:36 67° 318° (NW) 03:29:58 145.980
M-CUBED/EXP-1 PRIME 08 Dec 03:27:32 03:29:07 12° 271° (W) 03:30:44 437.505
SWISSCUBE 08 Dec 03:29:52 03:33:09 18° 271° (W) 03:36:26 437.505
AO-7 08 Dec 03:30:29 03:38:07 37° 95° (E) 03:45:42 29.400- 29.500
BEESAT 08 Dec 03:33:35 03:36:55 19° 271° (W) 03:40:16 436.000
Oscar 19 08 Dec 03:57:22 04:01:16 22° 305° (NW) 04:05:11 437.125/150
ITUPSAT 1 08 Dec 04:05:27 04:06:35 11° 277° (W) 04:07:45 437.325
Cosmos 2504 08 Dec 04:06:46 04:11:40 15° 37° (NE) 04:16:29 435.465 / 435.565
Gurwin Techsat 1B 08 Dec 04:11:09 04:15:41 29° 302° (WNW) 04:20:12 435.225
BRITE-PL 08 Dec 04:17:44 04:20:54 15° 84° (E) 04:24:08 437.365/2234.400
MOZHAYETS 4 08 Dec 04:19:00 04:22:40 23° 269° (W) 04:26:21
SO-50 08 Dec 04:23:18 04:27:47 55° 233° (SW) 04:32:10 436.795
YUBILEINY 08 Dec 04:24:08 04:31:32 28° 54° (NE) 04:38:53 435.215
CUBESAT XI-V 08 Dec 04:26:20 04:30:56 88° 78° (ENE) 04:35:36 437.345
ITAMSAT 1 08 Dec 04:29:50 04:34:59 62° 292° (WNW) 04:40:04 435.822/435.867
STARS 08 Dec 04:30:52 04:35:15 61° 258° (WSW) 04:39:41 437.465
KKS-1 08 Dec 04:31:52 04:35:56 33° 264° (W) 04:40:01 437.445
BEESAT 3 08 Dec 04:46:30 04:49:43 25° 119° (ESE) 04:52:59 437.485
Cosmos 2499 08 Dec 04:56:12 04:59:38 12° 330° (NNW) 05:03:05 435.465 / 435.565
GONETS M04 08 Dec 04:58:57 05:02:27 13° 328° (NNW) 05:05:58
AO-85 08 Dec 05:03:03 05:06:43 23° 339° (NNW) 05:10:11 145.980
Cosmos 2491 08 Dec 05:05:46 05:10:27 16° 68° (ENE) 05:15:09 435.465 / 435.565
AIST 1 08 Dec 05:12:46 05:15:07 14° 58° (ENE) 05:17:27
GOMX 1 08 Dec 05:19:17 05:23:36 23° 88° (E) 05:27:56 467.674
DOVE 4 08 Dec 05:20:10 05:21:33 11° 80° (E) 05:22:57 437.250
BEESAT 2 08 Dec 05:20:33 05:23:51 26° 119° (ESE) 05:27:12 435.950
AO-7 08 Dec 05:23:10 05:31:30 70° 297° (WNW) 05:39:47 29.400- 29.500
HORYU 2 08 Dec 05:30:22 05:34:26 33° 96° (E) 05:38:27 437.375
STRAND 1 08 Dec 05:45:02 05:49:35 33° 61° (ENE) 05:54:09 437.568
BRITE-PL 08 Dec 05:54:45 06:00:10 77° 103° (ESE) 06:05:49 437.365/2234.400
Cosmos 2504 08 Dec 05:59:32 06:08:00 45° 65° (ENE) 06:16:02 435.465 / 435.565
CUBESAT XI-V 08 Dec 06:06:26 06:09:00 15° 274° (W) 06:11:35 437.345
ITAMSAT 1 08 Dec 06:10:48 06:13:31 14° 313° (NW) 06:16:13 435.822/435.867
CUTE-I 08 Dec 06:20:35 06:25:28 35° 95° (E) 06:30:17 437.470
YUBILEINY 08 Dec 06:20:48 06:29:41 88° 79° (E) 06:38:34 435.215
BEESAT 3 08 Dec 06:23:13 06:27:05 57° 319° (NW) 06:31:02 437.485
NOAA 15 08 Dec 06:35:31 06:40:38 48° 100° (E) 06:45:43 137.62
LilacSat-2 08 Dec 06:42:28 06:46:13 56° 101° (E) 06:49:55 437.200
AO-85 08 Dec 06:45:33 06:48:30 17° 4° (N) 06:51:19 145.980
Cubesat XI-IV 08 Dec 06:47:10 06:52:26 54° 100° (E) 06:57:39 437.490
AIST 1 08 Dec 06:49:01 06:53:28 85° 78° (ENE) 06:57:53
NOAA 18 08 Dec 06:49:45 06:54:56 38° 97° (E) 07:00:03 137.9125
DOVE 4 08 Dec 06:55:05 07:00:22 60° 100° (E) 07:05:30 437.250
GOMX 1 08 Dec 06:56:43 07:02:11 73° 288° (WNW) 07:07:39 467.674
Cosmos 2491 08 Dec 06:56:52 07:05:25 61° 92° (E) 07:13:58 435.465 / 435.565
BEESAT 2 08 Dec 06:57:30 07:01:25 55° 320° (NW) 07:05:23 435.950
RS-15 08 Dec 07:00:00 07:10:43 42° 110° (ESE) 07:21:47 29.354- 29.394
HORYU 2 08 Dec 07:06:56 07:11:02 36° 296° (WNW) 07:15:05 437.375
HO-68 08 Dec 07:09:30 07:15:08 24° 88° (E) 07:20:42 435.675
AO-7 08 Dec 07:16:34 07:23:01 26° 321° (NW) 07:29:28 29.400- 29.500
CUTE 1.7 + AOD 2 08 Dec 07:22:42 07:25:45 19° 90° (E) 07:28:47 437.475
STRAND 1 08 Dec 07:23:42 07:28:39 48° 261° (W) 07:33:38 437.568
BRITE-PL 08 Dec 07:33:58 07:38:10 24° 302° (WNW) 07:42:32 437.365/2234.400
UNISAT 6 08 Dec 07:35:23 07:35:41 10° 48° (NE) 07:35:59 437.425
AAUSAT CUBESAT 2 08 Dec 07:36:42 07:37:03 10° 84° (E) 07:37:23 437.432
CANX-2 08 Dec 07:40:46 07:44:33 31° 95° (E) 07:48:19 2200.000
PRISM 08 Dec 07:49:52 07:53:32 33° 64° (ENE) 07:57:14 437.425
Cosmos 2504 08 Dec 07:53:08 08:01:45 58° 269° (W) 08:09:55 435.465 / 435.565
CINEMA 3 08 Dec 07:56:10 08:01:00 60° 100° (E) 08:05:35 145.822/145.860
CUBEBUG 2 08 Dec 07:58:23 08:01:38 20° 89° (E) 08:04:46 437.445
CUTE-I 08 Dec 08:00:34 08:05:40 46° 295° (WNW) 08:10:43 437.470
SEEDS 08 Dec 08:01:04 08:04:47 30° 94° (E) 08:08:30 437.485
TIGRISAT 08 Dec 08:01:53 08:04:33 15° 54° (NE) 08:07:13 435.000
BEESAT 3 08 Dec 08:02:31 08:05:29 20° 342° (NNW) 08:08:29 437.485
ANTELSAT 08 Dec 08:03:46 08:06:38 16° 55° (NE) 08:09:29 437.575/2403.000
COMPASS 1 08 Dec 08:06:55 08:10:22 24° 93° (E) 08:13:48 437.405
AIST 2 08 Dec 08:08:32 08:12:20 36° 123° (ESE) 08:16:11 435.215
NOAA 15 08 Dec 08:15:34 08:20:18 34° 299° (WNW) 08:25:01 137.62
LilacSat-2 08 Dec 08:17:31 08:20:10 18° 300° (WNW) 08:22:48 437.200
YUBILEINY 08 Dec 08:18:32 08:25:26 27° 283° (WNW) 08:32:20 435.215
AO-85 08 Dec 08:26:24 08:30:08 30° 28° (NNE) 08:33:41 145.980
Cubesat XI-IV 08 Dec 08:27:38 08:32:18 32° 301° (WNW) 08:36:57 437.490
AIST 1 08 Dec 08:28:11 08:30:25 14° 279° (W) 08:32:37
NOAA 18 08 Dec 08:30:26 08:35:42 45° 297° (WNW) 08:40:54 137.9125
DOVE 4 08 Dec 08:33:13 08:37:44 29° 300° (WNW) 08:42:09 437.250
UWE-3 08 Dec 08:35:18 08:39:03 28° 93° (E) 08:42:41 435.000/436.395/437.385
GOMX 1 08 Dec 08:35:57 08:39:26 18° 308° (NW) 08:42:56 467.674
BEESAT 2 08 Dec 08:37:00 08:40:00 20° 342° (NNW) 08:43:01 435.950
Cosmos 2499 08 Dec 08:51:59 08:56:47 15° 37° (NE) 09:01:26 435.465 / 435.565
Cosmos 2491 08 Dec 08:54:31 09:02:43 42° 296° (WNW) 09:10:57 435.465 / 435.565
HO-68 08 Dec 08:56:32 09:03:48 89° 287° (WNW) 09:11:02 435.675
CUTE 1.7 + AOD 2 08 Dec 08:57:48 09:01:58 59° 289° (WNW) 09:06:07 437.475
GONETS M04 08 Dec 09:02:16 09:07:16 16° 39° (NE) 09:12:17
UNISAT 6 08 Dec 09:06:55 09:11:24 48° 68° (ENE) 09:15:50 437.425
AAUSAT CUBESAT 2 08 Dec 09:09:07 09:13:17 75° 104° (ESE) 09:17:25 437.432
AO-7 08 Dec 09:09:34 09:13:00 13° 348° (NNW) 09:16:27 29.400- 29.500
RS-15 08 Dec 09:10:17 09:22:20 82° 317° (NW) 09:34:50 29.354- 29.394
ZACube-1 08 Dec 09:10:34 09:14:34 38° 97° (E) 09:18:28 437.345
NANOSAT C BR1 08 Dec 09:15:51 09:16:35 10° 50° (NE) 09:17:20 145.865
CANX-2 08 Dec 09:16:36 09:20:27 36° 294° (WNW) 09:24:19 2200.000
FUNcube-1 08 Dec 09:16:47 09:20:48 40° 97° (E) 09:24:44 145.935
QB50P2 08 Dec 09:22:44 09:24:47 13° 53° (NE) 09:26:49 145.880/145.840
POLYITAN 1 08 Dec 09:23:20 09:25:16 13° 53° (NE) 09:27:12 437.675
PRISM 08 Dec 09:25:09 09:28:50 32° 264° (W) 09:32:34 437.425
CINEMA 3 08 Dec 09:33:51 09:37:45 25° 301° (WNW) 09:41:33 145.822/145.860
CUBEBUG 2 08 Dec 09:34:17 09:38:41 60° 290° (WNW) 09:42:55 437.445
JAS-2 08 Dec 09:34:41 09:39:46 30° 59° (ENE) 09:44:28 435.910
QB50P1 08 Dec 09:34:47 09:37:19 16° 55° (NE) 09:39:52 145.935-145.965
DUCHIFAT 1 08 Dec 09:35:02 09:37:14 14° 54° (NE) 09:39:27 145.980
TIGRISAT 08 Dec 09:35:54 09:40:34 80° 74° (ENE) 09:45:12 435.000
SEEDS 08 Dec 09:36:42 09:40:33 36° 294° (WNW) 09:44:23 437.485
ANTELSAT 08 Dec 09:38:03 09:42:44 86° 74° (ENE) 09:47:22 437.575/2403.000
DANDE 08 Dec 09:38:26 09:40:53 17° 95° (E) 09:43:01 436.750
BEESAT 3 08 Dec 09:41:57 09:44:28 16° 5° (N) 09:46:58 437.485
COMPASS 1 08 Dec 09:42:09 09:46:06 44° 292° (WNW) 09:50:04 437.405
CUTE-I 08 Dec 09:42:45 09:44:31 12° 317° (NW) 09:46:17 437.470
Oscar 11 08 Dec 09:43:58 09:48:18 70° 103° (ESE) 09:52:35 145.826/435.025
DELFI C3 08 Dec 09:45:50 09:49:23 30° 95° (E) 09:52:55 145.870
AIST 2 08 Dec 09:46:47 09:50:47 44° 324° (NW) 09:54:50 435.215
Cosmos 2504 08 Dec 09:48:34 09:53:08 16° 293° (WNW) 09:57:38 435.465 / 435.565
POPSAT HIP 1 08 Dec 09:55:37 09:58:55 22° 59° (ENE) 10:02:14 437.405
AO-85 08 Dec 10:06:48 10:10:51 62° 231° (SW) 10:14:41 145.980
CUSAT 1 08 Dec 10:09:08 10:11:51 50° 286° (WNW) 10:14:24 437.405
UWE-3 08 Dec 10:11:35 10:15:40 40° 293° (WNW) 10:19:37 435.000/436.395/437.385
NOAA 18 08 Dec 10:13:06 10:15:05 12° 319° (NW) 10:17:04 137.9125
HUMSAT D 08 Dec 10:16:01 10:19:45 33° 96° (E) 10:23:28 437.325/437.525
BEESAT 2 08 Dec 10:16:34 10:19:09 16° 6° (N) 10:21:45 435.950
BUGSAT 1 08 Dec 10:20:57 10:23:35 16° 55° (NE) 10:26:12 437.445
PCSat 08 Dec 10:26:13 10:29:28 16° 105° (ESE) 10:32:43 145.827
CUTE 1.7 + AOD 2 08 Dec 10:36:08 10:36:58 10° 309° (NW) 10:37:47 437.475
ESTCUBE 1 08 Dec 10:36:56 10:38:20 11° 84° (E) 10:39:44 437.505/2401.250
UNISAT 6 08 Dec 10:44:22 10:48:20 27° 267° (W) 10:52:16 437.425
Cosmos 2499 08 Dec 10:44:27 10:52:47 45° 65° (ENE) 11:00:33 435.465 / 435.565
HO-68 08 Dec 10:44:56 10:50:46 28° 312° (NW) 10:56:37 435.675
AAUSAT CUBESAT 2 08 Dec 10:45:36 10:48:16 17° 303° (WNW) 10:50:57 437.432
ZACube-1 08 Dec 10:47:04 10:50:47 30° 297° (WNW) 10:54:26 437.345
NANOSAT C BR1 08 Dec 10:47:16 10:51:26 56° 70° (ENE) 10:55:38 145.865
FUNcube-1 08 Dec 10:53:18 10:56:56 28° 297° (WNW) 11:00:30 145.935
QB50P2 08 Dec 10:55:36 10:59:53 75° 72° (ENE) 11:04:11 145.880/145.840
POLYITAN 1 08 Dec 10:56:03 11:00:20 72° 73° (ENE) 11:04:38 437.675
GONETS M04 08 Dec 10:58:25 11:06:50 49° 67° (ENE) 11:15:14
Cosmos 2491 08 Dec 10:58:25 11:02:41 14° 325° (NW) 11:06:57 435.465 / 435.565
AO-7 08 Dec 10:58:37 11:02:24 14° 16° (NNE) 11:06:12 29.400- 29.500
DUCHIFAT 1 08 Dec 11:08:00 11:12:16 80° 72° (ENE) 11:16:33 145.980
QB50P1 08 Dec 11:08:13 11:12:31 89° 267° (W) 11:16:50 145.935-145.965
CUBEBUG 2 08 Dec 11:13:00 11:14:24 11° 310° (NW) 11:15:47 437.445
TIGRISAT 08 Dec 11:14:50 11:17:49 17° 272° (W) 11:20:47 435.000
ANTELSAT 08 Dec 11:17:19 11:20:03 15° 273° (W) 11:22:47 437.575/2403.000
JAS-2 08 Dec 11:18:37 11:24:41 60° 258° (WSW) 11:30:08 435.910
BEESAT 3 08 Dec 11:19:45 11:23:16 28° 29° (NNE) 11:26:45 437.485
DANDE 08 Dec 11:19:58 11:23:28 36° 287° (WNW) 11:26:19 436.750
DELFI C3 08 Dec 11:20:37 11:24:13 33° 294° (WNW) 11:27:49 145.870
Oscar 11 08 Dec 11:20:58 11:24:00 19° 302° (WNW) 11:27:01 145.826/435.025
RS-15 08 Dec 11:24:50 11:36:40 51° 348° (NNW) 11:48:42 29.354- 29.394
AIST 2 08 Dec 11:27:10 11:30:13 19° 347° (NNW) 11:33:18 435.215
POPSAT HIP 1 08 Dec 11:30:09 11:34:23 58° 258° (WSW) 11:38:38 437.405
50 SAT 08 Dec 11:45:13 11:47:19 15° 90° (E) 11:49:24 437.505
HUMSAT D 08 Dec 11:51:43 11:55:21 31° 296° (WNW) 11:58:57 437.325/437.525
BUGSAT 1 08 Dec 11:54:08 11:58:24 85° 256° (WSW) 12:02:41 437.445
BEESAT 2 08 Dec 11:54:31 11:58:06 29° 29° (NNE) 12:01:41 435.950
Oscar 19 08 Dec 12:01:40 12:06:24 39° 63° (ENE) 12:11:11 437.125/150
PCSat 08 Dec 12:06:37 12:12:01 77° 126° (SE) 12:17:28 145.827
AISAT 08 Dec 12:06:52 12:10:59 33° 96° (E) 12:15:02 437.250
ESTCUBE 1 08 Dec 12:11:25 12:15:58 74° 103° (ESE) 12:20:30 437.505/2401.250
Gurwin Techsat 1B 08 Dec 12:19:10 12:23:51 33° 60° (ENE) 12:28:33 435.225
NANOSAT C BR1 08 Dec 12:24:16 12:27:30 21° 269° (W) 12:30:44 145.865
CUBEBUG 1 08 Dec 12:25:40 12:30:07 66° 103° (ESE) 12:34:33 437.445
QB50P2 08 Dec 12:33:35 12:36:11 16° 272° (W) 12:38:50 145.880/145.840
POLYITAN 1 08 Dec 12:33:53 12:36:37 16° 271° (W) 12:39:22 437.675
HO-68 08 Dec 12:34:54 12:36:13 11° 336° (NNW) 12:37:32 435.675
Cosmos 2499 08 Dec 12:37:49 12:46:13 56° 270° (W) 12:54:03 435.465 / 435.565
ITAMSAT 1 08 Dec 12:38:08 12:41:11 16° 49° (NE) 12:44:16 435.822/435.867
VELOX 1 08 Dec 12:43:25 12:47:54 67° 103° (ESE) 12:52:21 145.980
AO-7 08 Dec 12:45:48 12:52:34 29° 42° (NE) 12:59:23 29.400- 29.500
DUCHIFAT 1 08 Dec 12:46:08 12:48:31 15° 273° (W) 12:50:55 145.980
QB50P1 08 Dec 12:46:58 12:48:57 13° 274° (W) 12:50:55 145.935-145.965
DX 1 08 Dec 12:47:51 12:52:04 42° 99° (E) 12:56:15 434.975-435.025
UKube-1 08 Dec 12:49:45 12:53:45 34° 97° (E) 12:57:43 .
GONETS M04 08 Dec 12:55:30 13:03:48 52° 271° (W) 13:12:08
SPROUT 08 Dec 12:56:37 13:00:54 65° 102° (ESE) 13:05:10 437.525
BEESAT 3 08 Dec 12:57:15 13:01:14 69° 230° (SW) 13:05:11 437.485
AIST 2 08 Dec 13:07:08 13:10:06 18° 11° (N) 13:13:05 435.215
JAS-2 08 Dec 13:09:19 13:10:51 11° 277° (W) 13:12:22 435.910
50 SAT 08 Dec 13:17:27 13:20:58 57° 289° (WNW) 13:24:28 437.505
BEESAT 2 08 Dec 13:32:12 13:36:13 66° 230° (SW) 13:40:12 435.950
BUGSAT 1 08 Dec 13:32:42 13:34:27 12° 274° (W) 13:36:12 437.445
RS-15 08 Dec 13:39:52 13:52:00 56° 21° (NNE) 14:04:03 29.354- 29.394
Oscar 19 08 Dec 13:40:57 13:45:45 40° 263° (W) 13:50:37 437.125/150
AISAT 08 Dec 13:43:20 13:47:29 37° 295° (WNW) 13:51:35 437.250
SWISSCUBE 08 Dec 13:45:45 13:47:37 12° 84° (E) 13:49:30 437.505
ESTCUBE 1 08 Dec 13:49:05 13:52:18 19° 303° (WNW) 13:55:31 437.505/2401.250
BEESAT 08 Dec 13:49:35 13:51:21 12° 84° (E) 13:53:08 436.000
PCSat 08 Dec 13:51:02 13:55:56 33° 329° (NNW) 14:00:51 145.827
Gurwin Techsat 1B 08 Dec 13:58:27 14:03:38 51° 260° (W) 14:08:51 435.225
CUBEBUG 1 08 Dec 14:02:42 14:06:00 21° 302° (WNW) 14:09:18 437.445
TISAT 1 08 Dec 14:08:45 14:13:00 64° 103° (ESE) 14:17:10 437.305
ITAMSAT 1 08 Dec 14:14:38 14:19:50 69° 69° (ENE) 14:25:01 435.822/435.867
ITUPSAT 1 08 Dec 14:17:47 14:21:20 20° 90° (E) 14:24:52 437.325
VELOX 1 08 Dec 14:20:37 14:23:57 21° 302° (WNW) 14:27:17 145.980
DX 1 08 Dec 14:24:19 14:28:08 29° 298° (WNW) 14:31:56 434.975-435.025
UKube-1 08 Dec 14:25:51 14:29:48 34° 296° (WNW) 14:33:43 .
Cosmos 2499 08 Dec 14:33:12 14:37:17 14° 294° (WNW) 14:41:15 435.465 / 435.565
SPROUT 08 Dec 14:33:17 14:36:27 20° 302° (WNW) 14:39:35 437.525
AO-7 08 Dec 14:36:02 14:44:20 81° 65° (ENE) 14:52:43 29.400- 29.500
BEESAT 3 08 Dec 14:36:59 14:38:07 11° 249° (WSW) 14:39:15 437.485
AUBIESAT-1 08 Dec 14:42:42 14:46:18 22° 96° (E) 14:49:47 437.475
AIST 2 08 Dec 14:45:39 14:49:37 38° 33° (NNE) 14:53:37 435.215
GONETS M04 08 Dec 14:55:06 14:58:26 13° 295° (WNW) 15:01:47
M-CUBED/EXP-1 PRIME 08 Dec 14:56:57 15:01:15 34° 101° (E) 15:05:24 437.505
HORYU 2 08 Dec 15:00:34 15:02:37 13° 51° (NE) 15:04:40 437.375
O/OREOS (USA 219) 08 Dec 15:01:58 15:04:42 16° 100° (E) 15:07:24 437.305
Cosmos 2491 08 Dec 15:03:08 15:07:36 15° 36° (NE) 15:12:03 435.465 / 435.565
BEESAT 2 08 Dec 15:12:21 15:13:15 11° 250° (WSW) 15:14:07 435.950
SWISSCUBE 08 Dec 15:21:30 15:26:16 75° 104° (ESE) 15:31:02 437.505
BEESAT 08 Dec 15:25:14 15:30:01 73° 104° (ESE) 15:34:46 436.000
BRITE-PL 08 Dec 15:34:44 15:38:32 27° 59° (ENE) 15:42:34 437.365/2234.400
PCSat 08 Dec 15:37:04 15:40:57 19° 354° (N) 15:44:50 145.827
TISAT 1 08 Dec 15:45:09 15:48:15 20° 302° (WNW) 15:51:19 437.305
RS-15 08 Dec 15:53:17 16:05:43 83° 231° (SW) 16:17:52 29.354- 29.394
ITUPSAT 1 08 Dec 15:54:53 15:59:38 67° 290° (WNW) 16:04:21 437.325
ITAMSAT 1 08 Dec 15:55:45 15:59:48 22° 269° (W) 16:03:52 435.822/435.867
LilacSat-2 08 Dec 15:59:28 16:00:10 10° 54° (NE) 16:00:51 437.200
HO-68 08 Dec 16:02:18 16:05:19 13° 30° (NNE) 16:08:19 435.675
MOZHAYETS 4 08 Dec 16:06:17 16:10:47 54° 100° (E) 16:15:15
CUTE-I 08 Dec 16:10:28 16:14:28 22° 54° (NE) 16:18:28 437.470
ISS 08 Dec 16:10:28 16:12:50 18° 146° (SE) 16:15:11 145.825
STARS 08 Dec 16:14:52 16:17:41 16° 89° (E) 16:20:28 437.465
KKS-1 08 Dec 16:16:05 16:20:06 31° 95° (E) 16:24:04 437.445
AUBIESAT-1 08 Dec 16:16:29 16:21:05 63° 296° (WNW) 16:25:29 437.475
CUBESAT XI-V 08 Dec 16:17:39 16:20:19 15° 86° (E) 16:23:00 437.345
NOAA 15 08 Dec 16:23:24 16:27:46 28° 57° (ENE) 16:32:10 137.62
AIST 2 08 Dec 16:24:10 16:28:13 46° 235° (SW) 16:32:17 435.215
DOVE 4 08 Dec 16:30:09 16:33:59 22° 56° (NE) 16:37:55 437.250
AO-7 08 Dec 16:30:54 16:38:00 31° 268° (W) 16:45:11 29.400- 29.500
M-CUBED/EXP-1 PRIME 08 Dec 16:31:20 16:35:47 42° 301° (WNW) 16:40:06 437.505
GOMX 1 08 Dec 16:33:16 16:37:44 40° 64° (ENE) 16:42:31 467.674
HORYU 2 08 Dec 16:33:56 16:38:23 67° 71° (ENE) 16:42:50 437.375
Cubesat XI-IV 08 Dec 16:36:27 16:41:08 31° 59° (ENE) 16:45:49 437.490
O/OREOS (USA 219) 08 Dec 16:38:55 16:43:29 84° 300° (WNW) 16:48:03 437.305
NOAA 18 08 Dec 16:43:05 16:47:41 28° 55° (NE) 16:52:19 137.9125
Cosmos 2491 08 Dec 16:59:11 17:07:28 44° 65° (ENE) 17:15:40 435.465 / 435.565
SWISSCUBE 08 Dec 17:00:06 17:03:36 21° 304° (NW) 17:07:06 437.505
BEESAT 08 Dec 17:03:48 17:07:20 21° 304° (NW) 17:10:52 436.000
BRITE-PL 08 Dec 17:12:24 17:16:45 51° 261° (W) 17:21:30 437.365/2234.400
PCSat 08 Dec 17:21:51 17:26:13 24° 20° (NNE) 17:30:34 145.827
CINEMA 3 08 Dec 17:27:41 17:31:25 21° 57° (ENE) 17:35:09 145.822/145.860
LilacSat-2 08 Dec 17:29:55 17:33:44 68° 73° (ENE) 17:37:34 437.200
ITUPSAT 1 08 Dec 17:34:15 17:36:39 14° 310° (NW) 17:39:03 437.325
YUBILEINY 08 Dec 17:35:51 17:42:07 23° 74° (ENE) 17:48:24 435.215
MOZHAYETS 4 08 Dec 17:43:58 17:47:41 25° 300° (WNW) 17:51:23
HO-68 08 Dec 17:44:43 17:51:06 36° 54° (NE) 17:57:30 435.675
ISS 08 Dec 17:45:37 17:48:50 51° 165° (SSE) 17:52:04 145.825
CUTE-I 08 Dec 17:48:33 17:53:57 85° 254° (WSW) 17:59:21 437.470
STARS 08 Dec 17:50:07 17:54:34 76° 289° (WNW) 17:58:59 437.465
AUBIESAT-1 08 Dec 17:52:09 17:54:39 15° 316° (NW) 17:57:07 437.475
KKS-1 08 Dec 17:52:33 17:56:45 40° 295° (WNW) 18:00:56 437.445
CUBESAT XI-V 08 Dec 17:53:41 17:58:23 88° 278° (W) 18:03:04 437.345
NOAA 15 08 Dec 18:02:03 18:07:14 62° 257° (WSW) 18:12:28 137.62
DOVE 4 08 Dec 18:06:06 18:11:05 79° 256° (WSW) 18:16:21 437.250
UWE-3 08 Dec 18:06:13 18:06:28 10° 49° (NE) 18:06:44 435.000/436.395/437.385
RS-15 08 Dec 18:06:31 18:16:36 32° 257° (WSW) 18:26:29 29.354- 29.394
M-CUBED/EXP-1 PRIME 08 Dec 18:07:54 18:09:09 11° 321° (NW) 18:10:25 437.505
GOMX 1 08 Dec 18:11:29 18:15:52 36° 266° (W) 18:20:36 467.674
HORYU 2 08 Dec 18:12:14 18:15:23 19° 270° (W) 18:18:33 437.375
Cubesat XI-IV 08 Dec 18:15:43 18:20:59 55° 259° (W) 18:26:18 437.490
O/OREOS (USA 219) 08 Dec 18:20:18 18:23:36 19° 322° (NW) 18:26:54 437.305
CUTE 1.7 + AOD 2 08 Dec 18:21:00 18:24:39 30° 64° (ENE) 18:28:20 437.475
NOAA 18 08 Dec 18:22:26 18:27:58 68° 257° (WSW) 18:33:33 137.9125
AAUSAT CUBESAT 2 08 Dec 18:31:25 18:34:03 17° 57° (ENE) 18:36:41 437.432
ZACube-1 08 Dec 18:38:50 18:40:39 12° 52° (NE) 18:42:28 437.345
CANX-2 08 Dec 18:39:10 18:43:12 47° 69° (ENE) 18:47:17 2200.000
FUNcube-1 08 Dec 18:44:37 18:46:34 13° 53° (NE) 18:48:31 145.935
Cosmos 2504 08 Dec 18:46:08 18:53:14 30° 78° (ENE) 19:00:32 435.465 / 435.565
SO-50 08 Dec 18:46:41 18:47:42 11° 108° (ESE) 18:48:42 436.795
CUSAT 1 08 Dec 18:51:12 18:53:36 17° 66° (ENE) 18:56:20 437.405
Cosmos 2491 08 Dec 18:56:12 19:04:41 58° 269° (W) 19:13:08 435.465 / 435.565
SEEDS 08 Dec 18:58:23 19:02:21 45° 68° (ENE) 19:06:21 437.485
CUBEBUG 2 08 Dec 19:01:35 19:05:54 36° 65° (ENE) 19:10:10 437.445
CINEMA 3 08 Dec 19:03:00 19:08:00 79° 256° (WSW) 19:13:05 145.822/145.860
COMPASS 1 08 Dec 19:03:16 19:07:03 36° 66° (ENE) 19:10:52 437.405
PCSat 08 Dec 19:05:18 19:10:43 58° 44° (NE) 19:16:04 145.827
LilacSat-2 08 Dec 19:06:21 19:08:29 14° 272° (W) 19:10:37 437.200
Oscar 11 08 Dec 19:10:06 19:13:05 19° 57° (ENE) 19:16:04 145.826/435.025
ISS 08 Dec 19:21:54 19:25:12 66° 185° (S) 19:28:30 145.825
AIST 1 08 Dec 19:24:46 19:28:42 35° 91° (E) 19:32:42
STRAND 1 08 Dec 19:27:37 19:32:22 37° 96° (E) 19:37:05 437.568
STARS 08 Dec 19:27:54 19:30:13 14° 308° (NW) 19:32:31 437.465
YUBILEINY 08 Dec 19:28:52 19:37:34 81° 98° (E) 19:46:24 435.215
HO-68 08 Dec 19:31:20 19:38:28 68° 256° (WSW) 19:45:40 435.675
CUTE-I 08 Dec 19:31:33 19:34:49 16° 274° (W) 19:38:06 437.470
CUBESAT XI-V 08 Dec 19:32:12 19:35:08 17° 306° (NW) 19:38:05 437.345
UWE-3 08 Dec 19:37:30 19:41:58 49° 69° (ENE) 19:46:22 435.000/436.395/437.385
NOAA 15 08 Dec 19:46:47 19:48:08 11° 278° (W) 19:49:28 137.62
DOVE 4 08 Dec 19:47:03 19:49:42 14° 278° (W) 19:52:25 437.250
CUTE 1.7 + AOD 2 08 Dec 19:56:30 20:00:25 38° 263° (W) 20:04:22 437.475
AAUSAT CUBESAT 2 08 Dec 20:04:56 20:09:03 75° 258° (WSW) 20:13:11 437.432
DANDE 08 Dec 20:07:04 20:09:03 17° 68° (ENE) 20:11:14 436.750
NOAA 18 08 Dec 20:07:07 20:09:41 13° 276° (W) 20:12:16 137.9125
ZACube-1 08 Dec 20:11:42 20:16:10 65° 72° (ENE) 20:20:34 437.345
CANX-2 08 Dec 20:15:56 20:19:19 23° 268° (W) 20:22:42 2200.000
FUNcube-1 08 Dec 20:17:36 20:22:04 69° 72° (ENE) 20:26:28 145.935
SO-50 08 Dec 20:22:36 20:27:15 56° 128° (SE) 20:31:50 436.795
CUSAT 1 08 Dec 20:32:07 20:35:36 56° 260° (W) 20:40:08 437.405
SEEDS 08 Dec 20:34:53 20:38:16 24° 268° (W) 20:41:41 437.485
Cosmos 2504 08 Dec 20:37:07 20:45:44 82° 282° (WNW) 20:54:44 435.465 / 435.565
DELFI C3 08 Dec 20:37:08 20:40:49 40° 68° (ENE) 20:44:32 145.870
CUBEBUG 2 08 Dec 20:38:07 20:42:31 37° 264° (W) 20:46:52 437.445
COMPASS 1 08 Dec 20:39:03 20:42:40 29° 265° (W) 20:46:20 437.405
CINEMA 3 08 Dec 20:43:18 20:45:57 14° 276° (W) 20:48:36 145.822/145.860
Oscar 11 08 Dec 20:44:27 20:48:45 72° 256° (WSW) 20:53:05 145.826/435.025
PCSat 08 Dec 20:49:03 20:53:55 34° 245° (WSW) 20:58:45 145.827
Cosmos 2491 08 Dec 20:55:13 20:59:32 15° 293° (WNW) 21:03:52 435.465 / 435.565
ISS 08 Dec 20:58:26 21:01:27 32° 205° (SSW) 21:04:27 145.825
PRISM 08 Dec 21:00:09 21:03:27 22° 93° (E) 21:06:45 437.425
AIST 1 08 Dec 21:02:27 21:06:20 31° 291° (WNW) 21:10:17
STRAND 1 08 Dec 21:06:51 21:11:37 41° 297° (WNW) 21:16:22 437.568
HUMSAT D 08 Dec 21:12:44 21:16:48 53° 70° (ENE) 21:20:51 437.325/437.525
UWE-3 08 Dec 21:14:46 21:18:39 26° 267° (W) 21:22:29 435.000/436.395/437.385
HO-68 08 Dec 21:23:25 21:27:37 16° 277° (W) 21:31:51 435.675
TIGRISAT 08 Dec 21:23:50 21:24:46 11° 83° (E) 21:25:43 435.000
ANTELSAT 08 Dec 21:25:32 21:27:09 12° 84° (E) 21:28:45 437.575/2403.000
YUBILEINY 08 Dec 21:27:52 21:35:27 32° 303° (WNW) 21:43:09 435.215
AISAT 08 Dec 21:36:45 21:38:32 12° 50° (NE) 21:40:19 437.250
ESTCUBE 1 08 Dec 21:41:19 21:44:50 23° 59° (ENE) 21:48:21 437.505/2401.250
DANDE 08 Dec 21:49:21 21:51:44 25° 263° (W) 21:54:29 436.750
ZACube-1 08 Dec 21:49:37 21:52:52 19° 270° (W) 21:56:04 437.345
CUBEBUG 1 08 Dec 21:52:46 21:55:54 19° 57° (ENE) 21:59:04 437.445
FUNcube-1 08 Dec 21:55:39 21:58:46 18° 271° (W) 22:01:50 145.935
SO-50 08 Dec 22:03:30 22:07:57 39° 329° (NNW) 22:12:19 436.795
VELOX 1 08 Dec 22:11:32 22:14:50 21° 57° (ENE) 22:18:10 145.980
DELFI C3 08 Dec 22:12:33 22:15:47 24° 267° (W) 22:19:03 145.870
DX 1 08 Dec 22:15:27 22:17:50 15° 53° (NE) 22:20:15 434.975-435.025
UKube-1 08 Dec 22:17:10 22:18:51 12° 50° (NE) 22:20:32 .
SPROUT 08 Dec 22:21:41 22:24:34 18° 57° (ENE) 22:27:27 437.525
JAS-2 08 Dec 22:22:52 22:24:19 11° 83° (E) 22:25:47 435.910
Oscar 11 08 Dec 22:25:11 22:25:43 10° 277° (W) 22:26:14 145.826/435.025
50 SAT 08 Dec 22:26:23 22:28:46 17° 60° (ENE) 22:31:10 437.505
UNISAT 6 08 Dec 22:28:58 22:33:13 43° 98° (E) 22:37:20 437.425
Cosmos 2504 08 Dec 22:33:32 22:40:40 27° 307° (NW) 22:47:58 435.465 / 435.565
PRISM 08 Dec 22:34:58 22:39:00 49° 292° (WNW) 22:43:02 437.425
HUMSAT D 08 Dec 22:49:32 22:52:43 21° 269° (W) 22:55:52 437.325/437.525
QB50P1 08 Dec 22:49:57 22:50:03 10° 84° (E) 22:50:08 145.935-145.965
TIGRISAT 08 Dec 22:57:53 23:02:19 74° 102° (ESE) 23:06:39 435.000
ANTELSAT 08 Dec 23:00:12 23:04:40 81° 103° (ESE) 23:08:59 437.575/2403.000
POPSAT HIP 1 08 Dec 23:09:37 23:12:14 16° 88° (E) 23:14:49 437.405
AISAT 08 Dec 23:09:46 23:14:10 63° 70° (ENE) 23:18:36 437.250
ESTCUBE 1 08 Dec 23:16:54 23:21:19 59° 259° (WSW) 23:25:47 437.505/2401.250
O/OREOS (USA 219) 08 Dec 23:24:47 23:28:07 20° 39° (NE) 23:31:24 437.305
CUBEBUG 1 08 Dec 23:27:22 23:31:44 71° 258° (WSW) 23:36:10 437.445
Cosmos 2499 08 Dec 23:28:54 23:36:09 30° 79° (E) 23:43:30 435.465 / 435.565
TISAT 1 08 Dec 23:32:15 23:35:03 17° 56° (NE) 23:37:51 437.305
YUBILEINY 08 Dec 23:33:44 23:36:06 11° 333° (NNW) 23:38:27 435.215
SO-50 08 Dec 23:46:00 23:49:33 21° 352° (N) 23:53:04 436.795
VELOX 1 08 Dec 23:46:29 23:50:53 66° 257° (WSW) 23:55:21 145.980
DX 1 08 Dec 23:49:00 23:53:22 81° 72° (ENE) 23:57:46 434.975-435.025
UKube-1 08 Dec 23:49:48 23:54:05 65° 70° (ENE) 23:58:24 .
SPROUT 08 Dec 23:55:40 23:59:59 78° 256° (WSW) 00:04:21 437.525
ITUPSAT 1 08 Dec 23:57:07 23:57:53 10° 46° (NE) 23:58:38 437.325
50 SAT 08 Dec 23:58:20 00:01:45 51° 259° (W) 00:05:13 437.505
NANOSAT C BR1 09 Dec 00:00:59 00:05:02 42° 98° (E) 00:09:03 145.865
AUBIESAT-1 09 Dec 00:01:18 00:03:49 15° 44° (NE) 00:06:22 437.475
JAS-2 09 Dec 00:05:21 00:10:32 67° 103° (ESE) 00:15:54 435.910
UNISAT 6 09 Dec 00:05:59 00:09:47 28° 298° (WNW) 00:13:30 437.425
QB50P2 09 Dec 00:09:58 00:14:11 59° 101° (ESE) 00:18:22 145.880/145.840
POLYITAN 1 09 Dec 00:10:25 00:14:37 56° 101° (E) 00:18:46 437.675
M-CUBED/EXP-1 PRIME 09 Dec 00:15:20 00:18:37 21° 49° (NE) 00:22:01 437.505
